[Date Prev][Date Next][Thread Prev][Thread Next] - [Date Index][Thread Index][Author Index]
2 Line ISS Keps 6-18
- Subject: [sarex] 2 Line ISS Keps 6-18
- From: "Dave Larsen PhD" <doc@xxxxxxxxxxx>
- Date: Wed, 18 Jun 2003 05:13:09 -0700
ISS
1 25544U 98067A 03169.07732728 .00019675 00000-0 24741-3 0 1299
2 25544 51.6332 15.7559 0006557 266.1650 237.2370 15.59654751261149
----
Via the sarex mailing list at AMSAT.ORG courtesy of AMSAT-NA.
To unsubscribe, send "unsubscribe sarex" to Majordomo@amsat.org
AMSAT Home